STARLINK-11443, 62512

Orbit data source: Space-Track

STARLINK-11443, 62512 is a payload satellite owned by SpaceX/Seattle (US) in LEO that was launched on Wed, 08 Jan 2025 UTC via an FALCON 9 launch vehicle from the Air Force Eastern Test Range (AFETR). Payloads include a variety of satellites, spacecraft, and rockets equipped with specific instruments for various scientific and technological missions. These include communications satellites like Starlink; space stations such as the ISS; scientific satellites like the Hubble; Earth observation satellites from companies like Planet Labs, Umbra, and HawkEye 360; GPS; miniature CubeSats for education and research; and military/defense satellites.

Loading next visibility...
STARLINK-11443 details
Identifier
62512, 2025-004B
Orbit
LEO
Last TLE update1 day ago
Origin
Flag of USSpaceX/Seattle (US)
ManufacturerSpaceX/Seattle
MissionOperational spacecraft
Bus & MotorSTARLINK V2M, Unknown motor
Mass730 kg wet, ~700 kg dry
Launch date (UTC)
2025-01-08 (1 month ago)
Launch vehicle
FALCON 9
Launch site
Air Force Eastern Test Range (AFETR)
Object type
Payload
Rocket body
Debris
Shape & HBRUnknown
Radar Cross SectionLarge (>1 m²)

Expand to show TLE details & history

TLE from 1 day ago
0 STARLINK-11443
1 62512U 25004B   25035.14463848  .00003603  00000-0  23560-4 0  9992
2 62512  42.9932 314.3092 0000993  11.2033 348.8859 15.77855133  4510
Epoch: 2025-02-04T03:28Z
Definitive object data (Epoch: 2025-02-04T03:28:16.764Z)
Latitude-0.00003°
Longitude127.68517°
Altitude335.634 km
Speed7.71 km/s
True Right ascension20h 57m 14s
True Declination0° 00' 00"
Sunlit
Object was in daylight at TLE epoch
Visualization TLE readout
Latitude-21.89329°
Longitude95.39651°
Altitude341.128 km
Speed7.705 km/s
Apparent Right ascension19h 38m 25s
Apparent Declination-31° 17' 42"
Sunlit
Object is in daylight
Visualization observer readout
Local Sidereal Time08:42:51
Azimuth61.568° ENE
Elevation-74.358°
Doppler factor1
Orbital elements
Apogee altitude339.174 km
Perigee altitude337.84 km
Semi-major axis6,716.644 km
Eccentricity0.0000993
Inclination42.9932°
RAAN314.3092°
Arg. of periapsis11.2033°
True anomaly348.88371°
Mean anomaly348.8859°
Eccentric anomaly348.8848°
Mean motion3.94289 °/min
BSTAR0.00002356
Orbital period91.3 mins
Loading maneuver chart data...
Loading historical data...
Loading historical data...
Loading historical data...
Loading historical data...
Loading historical data...
Loading historical data...
Loading historical data...

STARLINK-11443 Visibility forecast

Observer location: undefined°, undefined

Span
Click to sort rows by Start time (UTC) header in descending order
Start Az.
Max El. time (UTC)
Max El. Az.
Max El.
End time (UTC)
End Az.
4 mins2025-02-05 22:16:39.086Z246.849° WSW2025-02-05 22:17:39.086Z236.314° WSW42.5°2025-02-05 22:20:39.086Z72.708° E
|